Regional Weather Roundup
Issued by NWS

Home | Current Version | Previous Version | Text Only | Print | Product List | Glossary Off
Versions: 1 2 3 4 5 6 7 8 9 10 11 12 13 14 15 16 17 18 19 20 21 22 23 24 25 26 27 28 29 30 31 32 33 34 35 36 37 38 39 40 41 42 43 44 45 46 47 48 49 50

000
ASUS43 KLMK 221002
RWRKY
KENTUCKY REGIONAL WEATHER ROUNDUP
NATIONAL WEATHER SERVICE LOUISVILLE KY
500 AM EST WED FEB 22 2017

NOTE "FAIR" INDICATES FEW OR NO CLOUDS BELOW 12,000 FEET
WITH NO SIGNIFICANT WEATHER AND/OR OBSTRUCTIONS TO VISIBILITY.

KYZ001>023-026-027-061>063-070>075-221100-
WESTERN AND SOUTH CENTRAL KENTUCKY

CITY           SKY/WX    TMP DP  RH WIND       PRES   REMARKS
PADUCAH        CLOUDY    58  55  90 CALM      29.87S
HENDERSON      CLOUDY    54  50  87 CALM      29.89S
OWENSBORO      CLOUDY    56  55  97 SE3       29.90S
HOPKINSVILLE   CLOUDY    57  57 100 N3        29.90R
BOWLING GREEN  CLOUDY    57  55  93 NE3       29.92R
GLASGOW        NOT AVBL
$$

KYZ024-025-028>034-038-045-046-053-221100-
NORTH CENTRAL KENTUCKY

CITY           SKY/WX    TMP DP  RH WIND       PRES   REMARKS
LOUISVILLE/SDF CLOUDY    59  54  83 SE7       29.90F
LOUISVILLE/LOU CLOUDY    58  54  86 SE5       29.91S
FORT KNOX      CLOUDY    55  55 100 CALM      29.90R
$$

KYZ035>037-039>044-047>052-055>060-089>105-221100-
NORTHEAST KENTUCKY

CITY           SKY/WX    TMP DP  RH WIND       PRES   REMARKS
LEXINGTON      CLOUDY    56  53  90 SE5       29.93S
COVINGTON      CLOUDY    56  55  97 S7        29.91S FOG
FRANKFORT      CLOUDY    57  53  86 CALM      29.92R
$$

KYZ054-064>069-076>088-106>120-221100-
SOUTHEAST KENTUCKY

CITY           SKY/WX    TMP DP  RH WIND       PRES   REMARKS
JACKSON        LGT RAIN  54  52  93 CALM      29.94F FOG
LONDON         LGT RAIN  54  52  93 CALM      29.95S FOG
SOMERSET       LGT RAIN  54  54 100 CALM      29.95S
MIDDLESBORO    LGT RAIN  53  53 100 CALM      29.97R
MONTICELLO     LGT RAIN  54  54 100 VRB3      29.95F FOG
$$





USA.gov is the U.S. government's official web portal to all federal, state and local government web resources and services.